Location: Dürabuch
(48.2640°N, 11.2185°E)
Time: 19:41:04
(UTC+00:00)

CZ-2D R/B - Pass Details

Date: 27 May 2025
Orbit: 790 x 841 km, 98.8° (Epoch: 16 June)

Event Time Altitude Azimuth Distance (km) Brightness Sun altitude
Rises 00:35:06 0° 25° (NNE) 3,410 7.1 -18.0°
Reaches altitude 10° 00:37:57 10° 39° (NE) 2,469 5.8 -17.8°
Maximum altitude 00:42:20 24° 92° (E) 1,671 3.9 -17.6°
Drops below altitude 10° 00:46:40 10° 146° (SE) 2,444 4.3 -17.3°
Enters shadow 00:46:56 - 147° (SSE) 2,526 4.4 -17.3°
